Location: Newark
(23.3970°S, 47.6010°W)
Time: 10:23:54
(UTC+00:00)

deb Explorer IX - Pass Details

Date: 21 February 2020
Orbit: 547 x 1101 km, 38.8° (Epoch: 28 March)

Event Time Altitude Azimuth Distance (km) Brightness Sun altitude
Rises 05:19:46 0° 236° (SW) 3,924 - -45.7°
Reaches altitude 10° 05:23:08 10° 223° (SW) 2,964 - -45.1°
Maximum altitude 05:29:00 25° 170° (S) 2,007 - -44.2°
Exits shadow 05:29:48 25° 160° (SSE) 2,017 ? -44.1°
Drops below altitude 10° 05:34:35 10° 116° (ESE) 2,806 ? -43.3°
Sets 05:37:41 0° 103° (ESE) 3,675 ? -42.8°
